Погода в Кингисеппе

Погода в Кингисеппе : погода сейчас, прогноз погоды и архив. Всё, что Вы хотите узнать о погоде в Кингисеппе!

Поиск расширенной информации на нашем сайте:

Другие новости

Новости СМИ2

Главная страница сайта

Новости сайта

03.07.2017

Напоминаем, что на нашем специализированном сайте Метеоцентр.Азия вы можете получить высокодетализированные автоматические прогнозы погоды по пунктам России, СНГ и мира в авиационном формате (включающие направление и скорость ветра, видимость, явления погоды, количество и форму облачности, нижнюю и верхнюю границу облачности).


Погода в Кингисеппе - сегодня

Время (UTC), дата Ветер
(°,м/с) 
Видим.   Явления Облачность Т
(°С)
Тd
(°С)
f(%) Тe
(°С)
Pmin
(гПа)
dP
(гПа)
Po
(мм)
O2
(г/м3)
Тmin Tmax R s Состояние
почвы
00 18.08.17 110 (В) 10 км  {гроза}  8/4 1000 м средняя 
[Sc|Ac trans]
+17 +17 100 +30  1017.7  -0.3  762  285           
03 18.08.17 160 (Ю) 10 км    4/3 1000 м средняя 
[Sc|Ac trans]
+15.8 +15.8 100 +27  1017.4  -0.4  761  287  +15.8         
06 18.08.17 200 (Ю) 10 км    10/10 360 м 
[St]
+17.7 +16.9 95 +31  1017.3  761  284  +15.8        сухая 
09 18.08.17 170 (Ю) 10 км    9/9 660 м кучево-дожд. 
[Cb cap]
+20.2 +17.3 83 +33  1017.7  0.3  761  282           
12 18.08.17 180 (Ю) 20000 м    9/9 800 м кучево-дожд. 
[Cb cap]
+22.4 +17.2 72 +35  1017  -0.7  761  280           
15 18.08.17 200 (Ю) 20000 м    10/3 600 м кучево-дожд., верхняя 
[Cb cap|Cs]
+21.7 +16.6 73 +33  1016.3  -0.6  761  280           
18 18.08.17 140 (ЮВ) 10 км  в посл. час ливневой дождь  10/3 600 м кучево-дожд., верхняя 
[Cb cap|Cs]
+19.3 +17.2 88 +33  1015.8  -0.5  760  282    +22.9  0.0     
21 18.08.17 130 (ЮВ) 10 км    10/10 1350 м 
[Sc]
+17.3 +16 92 +29  1015.3  -0.5  760  284           
00 19.08.17 130 (ЮВ) 10 км    8/3 1000 м верхняя 
[Sc|Ci fib]
+14.8 +14.8 100 +24  1015.3  -0.1  760  287           
03 19.08.17 120 (ЮВ) 10 км    4/1 1000 м верхняя 
[Sc|Ci fib]
+14.3 +14.3 100 +23  1014.3  -1  759  288  +14.1    0.0     
06 19.08.17 160 (Ю) 20000 м    10/3 600 м кучево-дожд., средняя 
[Cb cap|Ac As]
+19.5 +17 85 +33  1014.2  0.1  759  282  +14.1        сухая 
09 19.08.17 170 (Ю) 20000 м    10/0 средняя, верхняя 
[Ac trans|Ci]
+24.9 +17.4 63 +38  1013  -1.1  758  276           
12 19.08.17 160 (Ю) 20000 м    10/3 1000 м средняя, верхняя 
[Sc|Ac As|Ci fib]
+27.2 +19.8 64 +45  1011.6  -1.3  757  273           
15 19.08.17 160 (Ю) 20000 м    10/0 средняя, верхняя 
[Ac trans|Ci]
+27.7 +19.8 62 +46  1010.6  -1  756  272           
18 19.08.17 200 (Ю) 10 км  гроза, ливневой дождь  10/10 480 м кучево-дожд. 
[Cb cap]
+18.4 +18.4 100 +35  1012.3  1.7  758  282    +27.9  13     
21 19.08.17 160 (Ю) 10 км  слаб. ливневой дождь, в посл. час гроза  10/10 300 м кучево-дожд. 
[Cb cap]
+18 +18 100 +33  1013.3  0.9  758  282           
00 20.08.17 230 (ЮЗ) 10 км  слаб. ливневой дождь{гроза}  10/10 360 м кучево-дожд. 
[Cb cap]
+16.9 +16.9 100 +30  1014.1  0.8  759  284           
03 20.08.17 200 (Ю) 10 км  {ливн. осадки}  10/0 средняя 
[Ac und]
+15.8 +15.8 100 +27  1015.3  1.2  760  286  +15.8    20     
06 20.08.17 230 (ЮЗ) 10 км  {ливн. осадки}  9/3 600 м средняя, верхняя 
[Sc|Ac trans|Ci fib]
+16.8 +15.9 94 +28  1016.6  1.4  761  285  +15.4      влажная 
09 20.08.17 230 (ЮЗ) 20000 м    9/3 600 м средняя, верхняя 
[Sc|Ac trans|Ci fib]
+18.9 +14.6 76 +28  1017.5  0.9  761  284           
12 20.08.17 210 (ЮЗ) 20000 м    9/3 600 м средняя, верхняя 
[Sc diur, vesp|Ac As|Ci fib]
+19.8 +12.7 64 +26  1017.7  0.1  761  284           
15 20.08.17 210 (ЮЗ) 20000 м    10/3 600 м средняя 
[Sc|Ac As]
+18.2 +13.3 73 +25  1017.6  0.1  761  285           
18 20.08.17 160 (Ю) 10 км  в посл. час ливневой дождь  10/4 600 м кучево-дожд., средняя 
[Cb cap|Ac und]
+16.3 +14.2 87 +25  1016.9  -0.7  761  286    +20.9  0.0     
21 20.08.17 240 (ЮЗ) 10 км    10/8 1410 м средняя 
[Sc|Ac und]
+15.4 +14.9 97 +25  1015.9  -0.9  760  287           
00 21.08.17 тихо ()   10 км  слаб. ливневой дождь  10/10 600 м кучево-дожд. 
[Cb cap]
+14.7 +14.7 100 +22  1016.3  0.4  760  288           
Время (UTC), дата Ветер
(°,м/с) 
Видим.   Явления Облачность Т
(°С)
Тd
(°С)
f(%) Тe
(°С)
Pmin
(гПа)
dP
(гПа)
Po
(мм)
O2
(г/м3)
Тmin Tmax R s Состояние
почвы

Для получения пояснительной информации подведите курсор к названию столбца.

ПОГОДА в Кингисеппе - архив

Всё, что Вы хотите узнать о погоде в Кингисеппе - удобно и подробно!

Выберите нужную дату (начиная с 1 января 2015* года) и нажмите кнопку "Найти".
Будут отображены архивные сводки погоды по пункту Кингисепп, начиная с указанной даты.


Отображать данные в формате CSV (для использования в таблицах Excel)


Внимание! Наш архив погоды предназначен исключительно для личного некоммерческого использования в познавательных целях. Если Вам необходимы официальные справки о состоянии погоды (для производственных, юридических, коммерческих и т.п. целей), обращайтесь в органы Росгидромета.

*Примечание: данная дата относится к архиву по метеостанциям СССР (Россия, СНГ, Балтия).
Архив по метеостанциям Зарубежной Европы и Азии (кроме Китая) хранится 10 дней, по другим регионам земного шара (Китай, Африка, Америка, Австралия, Океания) - 1 день.

Кингисепп - район местоположения метеостанции


Название, широта, долгота, высота метеостанции:
Кингисепп 59.4°ш. 28.6°д. 19 м над ур. моря [Российская Федерация]

Дополнительная информация

В oтличие oт бoльшинства пoгoдных сайтoв мы публикуем пoдрoбную метеoинфoрмацию в детальнoм прoфессиoнальнoм фoрмате.

Характеристики температуры и влажнoсти вoздуха измеряются на высoте 2 м в тени вдали oт зданий и деревьев.
Скoрoсть ветра измеряется на высoте 10 м (на урoвне рoста челoвека скoрoсть ветра ниже в 1.5-2 раза). Если метеoстанция нахoдится в гoрoде или в лесу, тo скoрoсть ветра занижена на 2-4 м/с пo сравнению с oткрытым местoм. Скoрoсть ветра над акватoриями крупных рек и oзёр, а также на вершинах хoлмoв на 2-5 м/с выше, чем в oбычных услoвиях.
Атмoсфернoе давление в разных тoчках местнoсти мoжет значительнo oтличаться oт давления на метеoстанции, в зависимoсти oт услoвий рельефа (при пoдъёме на 10 м давление пoнижается примернo на 1 мм рт.ст.).